Hilton Head Island, SC

4:51 AM EDT on March 23, 2017 (GMT -0400)
Hilton Head

Weather History for KHXD - December, 2012

Change the Weather History Date:

Tuesday, December 11, 2012

  Actual Average Record
Temperature  
Mean Temperature 66 °F -  
Max Temperature 71 °F 63 °F 80 °F (1972)
Min Temperature 60 °F 43 °F 22 °F (1962)
Growing Degree Days 16 (Base 50)    
Moisture  
Dew Point 63 °F    
Average Humidity 96    
Maximum Humidity 100    
Minimum Humidity 78    
Precipitation  
Precipitation 0.00 in - - ()
Sea Level Pressure  
Sea Level Pressure 29.95 in    
Wind  
Wind Speed 5 mph (WSW)    
Max Wind Speed 9 mph    
Max Gust Speed -    
Visibility 8 miles    
Events Rain    
Averages and records for this station are not official NWS values.
T = Trace of Precipitation, MM = Missing Value Source: NWS Daily Summary

Daily Weather History Graph

Daily Weather History Graph

Search for Another Location

Airport or City:

Trip Planner

Search our weather history database for the weather conditions in past years. The results will help you decide how hot, cold, wet, or windy it might be!

Date:

Astronomy

Dec. 11, 2012 Rise Set
Actual Time 7:14 AM EST 5:18 PM EST
Civil Twilight 6:47 AM EST 5:45 PM EST
Nautical Twilight 6:16 AM EST 6:16 PM EST
Astronomical Twilight 5:46 AM EST 6:46 PM EST
Moon 5:10 AM EST (12/11) 3:53 PM EST (12/11)
Length of Visible Light 10h 58m
Length of Day
10h 04m
Waning Crescent, 4% of the Moon is Illuminated
Dec 11
Waning Crescent
Dec 13
New
Dec 20
First Quarter
Dec 28
Full
Jan 4
Last Quarter

Hourly Weather History & Observations

Time (EST) Temp. Dew Point Humidity Pressure Visibility Wind Dir Wind Speed Gust Speed Precip Events Conditions
12:15 AM 62.6 °F 62.6 °F 100% 29.83 in 8.0 mi SSW 6.9 mph - 0.00 in   Clear
12:55 AM 64.4 °F 64.4 °F 100% 29.83 in 10.0 mi SSW 6.9 mph - 0.00 in   Clear
1:15 AM 64.4 °F 64.4 °F 100% 29.83 in 10.0 mi SSW 6.9 mph - 0.00 in   Clear
1:35 AM 64.4 °F 64.4 °F 100% 29.83 in 10.0 mi SSW 6.9 mph - 0.00 in   Clear
1:55 AM 64.4 °F 64.4 °F 100% 29.83 in 10.0 mi SSW 5.8 mph - 0.00 in   Clear
2:15 AM 64.4 °F 64.4 °F 100% 29.83 in 10.0 mi SSW 5.8 mph - 0.00 in   Clear
2:35 AM 64.4 °F 64.4 °F 100% 29.83 in 9.0 mi SSW 5.8 mph - 0.00 in   Mostly Cloudy
2:55 AM 64.4 °F 64.4 °F 100% 29.84 in 9.0 mi South 5.8 mph - 0.00 in   Overcast
3:35 AM 64.4 °F 64.4 °F 100% 29.85 in 8.0 mi South 3.5 mph - 0.00 in   Clear
3:55 AM 64.4 °F 64.4 °F 100% 29.85 in 8.0 mi SSW 4.6 mph - 0.00 in   Clear
4:15 AM 64.4 °F 64.4 °F 100% 29.86 in 7.0 mi South 3.5 mph - 0.00 in   Clear
4:35 AM 64.4 °F 64.4 °F 100% 29.85 in 6.0 mi South 3.5 mph - 0.00 in   Clear
4:55 AM 62.6 °F 62.6 °F 100% 29.87 in 5.0 mi South 3.5 mph - 0.00 in   Scattered Clouds
5:15 AM 64.4 °F 64.4 °F 100% 29.87 in 5.0 mi South 3.5 mph - 0.00 in   Overcast
5:35 AM 64.4 °F 64.4 °F 100% 29.88 in 5.0 mi South 4.6 mph - 0.00 in   Overcast
6:50 AM 62.6 °F 62.6 °F 100% 29.91 in 1.0 mi South 6.9 mph - N/A   Overcast
7:50 AM 64.4 °F 64.4 °F 100% 29.93 in 2.0 mi Calm Calm - N/A   Overcast
8:50 AM 64.4 °F 64.4 °F 100% 29.97 in 2.0 mi South 6.9 mph - N/A   Overcast
9:50 AM 68.0 °F 64.4 °F 88% 29.98 in 5.0 mi SW 3.5 mph - N/A   Mostly Cloudy
10:50 AM 68.0 °F 64.4 °F 88% 29.99 in 6.0 mi SSW 4.6 mph - N/A   Mostly Cloudy
11:50 AM 69.8 °F 64.4 °F 83% 29.97 in 8.0 mi Calm Calm - N/A   Overcast
12:50 PM 71.6 °F 64.4 °F 78% 29.97 in 8.0 mi South 4.6 mph - N/A   Mostly Cloudy
1:50 PM 68.0 °F 62.6 °F 83% 29.97 in 8.0 mi NNE 3.5 mph - N/A   Overcast
2:50 PM 68.0 °F 62.6 °F 83% 29.96 in 10.0 mi Calm Calm - N/A   Mostly Cloudy
3:28 PM 66.2 °F 62.6 °F 88% 29.98 in 8.0 mi North 6.9 mph - N/A   Mostly Cloudy
3:50 PM 66.2 °F 62.6 °F 88% 29.99 in 6.0 mi NNW 5.8 mph - N/A Rain Light Rain
4:55 PM 64.4 °F 60.8 °F 88% 29.99 in 8.0 mi NNW 9.2 mph - N/A   Partly Cloudy
5:55 PM 62.6 °F 59.0 °F 88% 30.00 in 10.0 mi North 6.9 mph - N/A   Overcast
6:55 PM 62.6 °F 62.6 °F 100% 30.02 in 10.0 mi North 3.5 mph - N/A   Overcast
7:55 PM 62.6 °F 59.0 °F 88% 30.04 in 10.0 mi Calm Calm - N/A   Overcast
8:15 PM 62.6 °F 62.6 °F 100% 30.04 in 10.0 mi North 3.5 mph - 0.00 in   Overcast
8:35 PM 62.6 °F 62.6 °F 100% 30.06 in 10.0 mi Calm Calm - 0.00 in   Overcast
8:55 PM 62.6 °F 62.6 °F 100% 30.06 in 10.0 mi North 4.6 mph - 0.00 in   Overcast
9:15 PM 62.6 °F 62.6 °F 100% 30.07 in 10.0 mi NNW 3.5 mph - 0.00 in   Overcast
9:35 PM 60.8 °F 60.8 °F 100% 30.05 in 10.0 mi Calm Calm - 0.00 in   Overcast
9:55 PM 60.8 °F 60.8 °F 100% 30.06 in 10.0 mi NNW 3.5 mph - 0.00 in   Mostly Cloudy
10:35 PM 60.8 °F 60.8 °F 100% 30.07 in 10.0 mi North 6.9 mph - 0.00 in   Overcast
10:55 PM 60.8 °F 60.8 °F 100% 30.09 in 10.0 mi North 6.9 mph - 0.00 in   Overcast
11:15 PM 60.8 °F 60.8 °F 100% 30.08 in 10.0 mi North 6.9 mph - 0.00 in   Overcast
11:35 PM 60.8 °F 60.8 °F 100% 30.09 in 10.0 mi NNW 4.6 mph - 0.00 in   Overcast
11:55 PM 60.8 °F 60.8 °F 100% 30.08 in 10.0 mi North 4.6 mph - 0.00 in   Overcast